GFSMA_925_thetae_000.txt.gz
Theta_e
350 349 349 349 347 347 349 349 349 348 348 346 345 346 345 345 346 346 347 346 343 343 342 348 350 348 345 348 347 347 345 346 343 343 338 343 344 343 343 344 344 342 341
350 349 349 348 348 347 349 349 348 349 348 347 346 346 345 344 346 346 346 347 345 342 343 343 349 348 347 346 348 348 347 345 343 342 341 338 338 340 341 341 341 339 337
351 351 349 348 348 349 347 348 349 349 348 348 347 347 346 345 345 347 347 346 347 347 344 342 342 340 345 347 346 344 341 344 343 344 345 343 340 340 340 338 341 339 337
352 346 347 348 348 350 347 347 347 348 349 347 347 346 345 345 345 346 346 346 345 344 347 346 342 342 341 347 349 346 345 344 342 339 337 338 341 342 342 342 336 337 338
348 346 345 346 343 347 348 346 347 348 347 347 347 346 346 345 345 344 344 345 346 346 344 347 346 344 344 348 349 347 345 344 344 343 342 343 343 342 339 334 339 338 334
351 351 349 349 349 348 347 348 347 348 347 347 347 345 344 344 344 344 343 344 345 345 345 344 348 348 344 345 346 346 347 346 345 345 345 345 344 343 339 336 334 334 335
353 352 346 349 350 349 349 350 351 349 347 346 347 346 345 344 344 344 343 343 344 344 344 345 345 346 347 347 345 342 343 346 347 347 346 345 345 345 345 342 340 340 340
349 348 348 346 346 346 347 349 349 349 346 345 347 346 346 344 342 344 344 343 343 344 343 344 345 347 346 346 350 348 342 339 339 340 341 341 343 344 345 344 344 344 344
345 345 345 344 345 347 345 345 346 347 347 344 345 346 346 346 341 341 344 344 342 344 344 343 344 346 347 346 346 348 346 343 340 340 341 343 343 342 342 341 342 343 344
342 342 343 343 344 344 345 344 345 347 345 346 344 345 344 341 346 345 342 343 344 343 343 343 343 344 347 348 347 345 346 346 343 340 340 340 343 343 343 343 344 345 346
340 340 341 342 342 342 342 342 342 345 345 343 343 343 343 344 343 346 348 343 344 343 343 344 343 343 344 346 347 347 346 344 346 341 339 339 339 340 341 342 342 344 344
337 338 338 338 339 339 339 340 340 343 344 344 345 344 343 344 344 345 349 343 342 341 343 342 342 343 343 343 345 346 347 346 344 339 337 341 340 339 340 342 343 344 345
334 333 334 334 334 335 336 337 337 339 340 343 342 344 345 343 342 344 345 348 347 342 342 342 342 343 343 343 343 344 344 344 345 343 340 339 339 339 339 341 344 344 346
332 334 333 333 334 334 334 335 336 336 337 337 340 340 342 345 344 345 341 344 351 346 343 343 343 343 343 344 343 344 344 345 343 342 340 340 341 341 340 341 345 346 347
332 330 332 333 333 334 335 336 334 334 335 335 336 337 338 339 341 342 342 342 347 352 349 342 343 342 344 345 345 345 345 346 345 343 342 341 342 342 342 341 346 347 346
334 333 333 333 333 333 333 333 332 332 334 335 335 335 335 336 338 339 342 342 342 347 349 341 340 341 344 346 346 346 347 347 348 347 343 342 342 343 344 344 345 346 346
334 333 334 334 333 333 333 332 332 330 330 331 331 332 334 335 336 337 339 342 343 343 345 339 338 338 343 346 346 347 348 349 349 347 345 343 343 343 345 345 345 345 345
333 333 333 335 334 333 333 333 332 331 331 330 330 331 332 333 335 338 338 338 340 340 342 345 338 340 342 344 346 347 349 347 348 348 348 345 345 345 345 345 344 343 342
332 333 334 333 332 333 332 332 332 330 329 328 328 327 328 329 332 335 338 338 337 339 340 342 341 339 339 341 344 346 347 347 347 348 349 344 344 344 343 342 342 341 341
333 334 334 333 333 333 332 332 331 329 328 327 325 324 324 327 331 335 336 339 338 338 340 340 341 339 339 341 344 346 348 346 347 347 348 347 344 342 341 339 339 340 341
332 332 331 332 331 331 331 331 328 329 327 326 325 323 323 323 324 327 329 337 338 339 338 340 340 338 340 341 344 345 346 347 346 346 346 346 346 345 344 341 338 338 338
330 331 330 330 331 331 330 324 324 327 326 326 326 322 322 322 322 323 323 327 333 338 340 340 338 340 341 341 341 343 345 346 348 347 346 345 344 344 344 344 344 343 340
331 329 329 329 330 330 329 324 321 326 326 325 325 324 320 320 322 322 322 323 325 332 335 340 339 339 341 341 341 343 344 346 347 343 347 346 344 344 345 344 343 343 342
330 329 328 329 328 327 326 326 323 326 327 326 325 325 323 320 321 320 320 320 322 326 336 335 339 338 339 340 340 342 345 346 346 345 347 347 343 344 346 345 345 344 342
327 326 328 329 328 327 325 327 324 327 328 326 327 322 323 323 321 320 320 321 321 327 331 337 337 338 339 339 340 341 344 347 346 346 345 346 344 343 346 346 346 344 343
327 327 327 327 328 326 326 325 326 326 327 326 326 324 321 322 318 317 321 320 322 323 333 337 337 337 337 338 338 337 343 345 346 345 342 344 344 345 348 345 346 344 342

GFSMA_925_thetae_003.txt.gz
Theta_e
349 349 351 348 348 345 346 348 349 347 347 347 346 345 345 344 344 344 345 347 344 340 342 350 350 350 348 346 348 347 347 345 345 344 342 345 345 344 344 344 344 344 342
350 349 348 350 348 349 350 350 348 350 349 347 346 345 346 345 344 345 344 349 346 342 342 344 351 350 349 344 350 347 347 345 343 343 342 337 336 337 340 341 340 342 339
350 349 349 350 349 350 351 350 349 350 349 347 346 346 345 347 346 345 345 345 350 347 343 341 343 346 348 348 345 346 348 346 342 341 341 342 342 341 338 338 337 340 338
350 348 348 347 348 348 350 349 348 348 348 348 347 346 345 346 346 347 346 347 346 347 349 347 343 341 343 348 347 344 343 342 342 343 343 342 343 339 341 342 341 337 335
352 352 351 348 349 349 347 348 349 347 348 348 347 348 346 345 344 344 346 346 346 346 347 350 347 344 342 349 348 347 345 344 344 344 342 339 337 341 343 343 339 336 339
353 351 350 350 351 350 350 349 350 350 348 348 347 346 346 345 344 344 343 344 344 346 347 345 348 349 346 344 348 347 347 345 344 343 343 343 343 344 343 340 337 335 334
353 354 353 351 349 351 351 350 349 349 350 349 346 347 347 347 345 344 344 344 343 344 345 346 346 349 350 346 343 342 345 346 346 344 344 344 345 345 343 342 340 338 338
347 348 348 345 343 342 342 345 346 347 348 346 346 347 350 347 346 345 344 344 344 344 344 345 346 346 346 351 350 347 345 342 345 346 345 345 346 345 345 344 344 343 343
343 344 345 345 344 342 340 344 344 346 347 346 344 346 350 349 343 343 346 345 345 344 344 344 345 346 347 348 349 351 350 345 340 339 341 341 342 342 342 341 341 341 341
341 342 342 342 344 343 343 343 344 345 346 346 345 344 345 346 351 349 344 346 347 346 344 344 344 345 347 348 349 348 350 348 346 343 340 340 341 342 343 343 342 342 342
340 340 342 341 341 342 342 343 342 342 343 344 344 344 344 345 345 348 351 346 345 346 345 344 344 344 345 346 348 349 346 346 348 347 342 339 339 340 340 341 341 341 342
336 338 339 339 340 340 340 340 341 341 340 342 343 344 345 345 345 347 351 346 346 345 345 345 344 344 344 345 346 346 348 348 346 345 347 346 341 339 339 339 340 341 342
334 335 337 337 336 337 337 337 338 339 339 338 339 340 342 342 344 346 346 348 350 344 344 343 343 343 344 344 344 344 344 346 348 347 345 343 341 339 341 341 339 340 341
333 336 336 336 336 336 336 337 337 336 336 336 336 337 337 338 339 341 345 344 349 346 340 343 344 342 339 344 343 343 343 344 343 344 346 346 343 339 340 340 339 339 340
334 334 335 335 336 335 335 335 334 336 336 335 336 335 335 335 336 337 339 343 344 348 345 341 343 343 344 345 345 344 344 345 344 343 343 343 342 340 339 340 340 339 340
336 336 335 334 335 335 335 335 334 333 333 333 333 333 333 332 333 334 336 338 341 344 348 341 342 341 344 345 346 343 347 346 346 345 345 344 342 341 341 341 340 340 341
336 336 335 334 335 335 335 335 335 334 333 334 333 330 331 331 330 332 335 336 339 342 346 341 340 337 342 342 340 347 348 348 347 347 347 347 346 343 341 341 341 342 342
334 334 334 335 335 334 333 335 335 334 334 332 331 330 329 328 329 329 330 336 338 339 341 343 342 340 343 343 342 346 348 349 348 346 347 346 343 342 342 341 342 343 344
334 334 334 334 334 334 334 335 334 334 332 332 330 329 328 327 325 325 324 335 336 338 338 341 341 341 340 342 344 346 346 347 346 350 347 348 347 344 343 343 344 344 344
334 334 333 333 333 333 333 334 334 333 331 331 329 329 327 325 324 321 322 325 328 335 338 339 341 341 340 341 343 344 346 345 346 348 348 348 348 344 343 343 344 344 343
333 332 332 332 331 331 330 333 333 331 330 330 329 329 327 324 321 321 322 322 323 325 326 341 340 341 340 340 341 342 345 346 347 348 348 349 349 347 343 342 341 340 339
331 331 331 330 331 330 329 330 328 328 329 329 328 328 328 325 321 321 319 319 321 323 325 326 340 342 343 341 341 342 345 347 352 347 348 349 349 348 347 347 346 342 338
332 332 331 330 330 330 329 328 327 327 328 329 329 328 327 326 325 323 317 319 321 322 323 325 328 337 340 341 340 341 344 346 347 346 348 348 348 348 348 346 345 345 344
333 332 331 329 330 329 328 326 327 327 327 328 330 328 328 324 325 323 319 319 320 322 323 325 331 332 336 341 340 338 344 343 346 346 347 350 346 346 345 344 345 345 343
332 331 330 329 330 330 330 327 326 327 327 329 328 327 326 323 322 322 319 319 321 322 324 324 325 328 336 339 339 344 340 347 348 346 346 347 347 346 345 345 347 346 345
331 330 328 327 328 329 329 327 325 326 327 328 328 327 324 322 323 322 320 321 322 323 321 322 327 330 334 337 338 338 344 342 346 346 345 346 345 345 348 345 347 346 345

GFSMA_925_thetae_006.txt.gz
Theta_e
349 349 350 352 348 348 348 348 350 350 348 348 348 347 345 345 344 344 347 346 345 343 340 350 348 349 348 346 346 347 346 338 340 338 340 345 345 343 342 339 340 342 342
349 349 349 350 351 349 351 351 351 348 349 349 347 347 346 346 345 345 345 347 346 344 341 341 350 350 350 348 344 343 346 346 340 343 336 332 341 344 338 339 339 341 343
349 350 347 347 348 351 350 348 350 350 350 349 349 348 347 346 344 346 345 347 348 347 345 340 341 348 348 348 345 347 345 344 342 337 343 342 336 334 335 336 336 335 336
348 347 348 348 348 348 349 349 349 348 349 349 349 348 347 347 345 347 346 345 348 349 347 346 341 341 342 348 347 339 347 344 346 340 342 341 342 343 341 339 339 339 337
352 349 349 352 350 348 349 350 349 349 349 347 347 349 348 348 347 345 347 346 345 347 349 349 347 345 342 348 348 343 341 343 345 343 342 342 342 339 338 339 341 339 335
350 349 351 349 349 349 349 347 347 346 347 349 349 348 347 348 347 346 345 344 348 347 346 348 350 348 346 344 349 346 342 343 341 340 341 342 341 338 337 342 342 339 334
349 352 351 349 348 348 346 345 346 347 346 347 346 346 348 348 347 349 348 346 344 345 346 346 349 348 347 346 344 346 344 344 344 342 342 342 342 341 342 343 342 339 336
348 345 346 346 342 344 344 341 341 344 345 345 344 343 347 345 346 346 348 346 345 346 345 344 346 350 349 349 349 345 342 339 340 342 344 342 342 342 343 343 343 343 342
341 342 344 345 343 342 342 343 342 342 344 344 344 343 346 346 343 341 347 347 347 345 345 346 345 345 346 348 349 349 347 344 342 342 342 344 343 343 343 344 344 343 343
338 339 341 342 343 342 341 342 343 342 342 343 342 343 343 343 346 346 342 345 345 347 348 346 346 347 346 346 346 350 350 348 347 345 341 340 341 343 342 342 341 340 339
338 340 340 342 340 341 341 340 341 340 340 341 342 343 343 342 342 345 345 344 343 345 346 340 340 344 348 346 347 346 349 352 350 348 344 340 338 339 340 341 342 341 340
334 337 340 339 338 338 338 337 338 338 339 339 339 339 340 341 341 340 341 343 344 344 344 344 343 340 342 347 348 349 348 348 348 350 349 346 344 340 338 339 341 343 341
334 337 338 337 337 337 337 337 337 336 337 336 336 336 336 337 339 339 340 340 341 341 342 343 343 343 337 336 343 348 347 349 348 347 346 346 346 345 341 341 339 339 338
336 334 337 336 336 336 335 336 333 335 336 333 333 333 335 335 335 334 337 338 338 337 339 342 342 341 343 342 339 340 345 345 345 347 348 347 345 344 344 343 339 339 340
337 336 336 335 335 334 334 333 334 333 334 334 333 333 331 333 333 332 333 334 336 337 337 337 341 341 340 339 340 340 340 340 346 344 344 345 347 347 345 344 341 338 340
336 337 336 336 335 335 335 335 334 334 334 332 334 332 332 332 330 332 330 331 331 333 335 334 338 341 341 341 343 344 339 343 343 344 344 343 343 343 344 345 344 340 339
336 337 336 336 335 335 335 334 333 334 333 334 333 332 331 329 328 328 327 326 326 326 332 334 336 339 341 340 339 340 344 347 346 347 344 344 344 344 344 343 342 342 341
334 334 334 334 334 335 335 333 334 334 334 333 333 331 331 329 327 325 324 323 323 324 325 334 335 338 340 341 338 338 342 342 342 345 347 346 346 346 345 345 343 342 342
334 335 335 334 334 334 334 334 334 333 334 334 333 330 330 328 326 325 323 321 322 322 323 325 333 337 339 340 340 342 343 340 339 336 349 347 346 346 346 346 344 342 342
335 335 334 334 333 334 333 334 333 333 332 333 331 330 329 328 326 323 322 321 319 320 322 322 326 331 338 339 340 340 343 343 343 342 348 347 347 347 347 345 343 342 341
336 335 333 333 334 334 333 332 332 330 331 330 331 330 329 328 327 326 324 323 320 319 321 322 324 326 330 338 340 339 341 343 345 345 345 345 347 347 348 347 344 343 343
335 333 333 334 332 333 331 330 328 328 328 327 328 329 328 327 327 326 324 324 323 319 320 321 323 323 325 331 338 340 340 343 345 342 343 346 348 346 347 346 341 340 342
333 333 333 334 333 332 332 330 327 326 326 328 328 329 328 327 325 324 324 325 323 320 320 321 323 324 325 327 333 339 340 339 341 344 344 347 346 348 349 347 344 340 338
334 333 333 333 331 331 330 329 327 327 327 328 329 328 327 326 325 326 323 323 322 320 321 322 323 323 324 326 329 337 339 338 342 344 344 345 345 347 347 349 346 347 346
333 334 333 332 331 329 329 330 327 327 329 327 328 328 328 325 324 324 322 321 320 321 322 321 321 321 322 323 326 332 337 338 341 342 344 343 346 346 347 347 348 345 345
333 325 332 333 332 331 329 326 325 320 322 326 326 327 326 325 324 322 321 321 321 321 320 321 321 324 325 323 323 325 333 339 337 342 343 343 345 346 345 344 345 345 345

GFSMA_925_thetae_009.txt.gz
Theta_e
349 347 349 348 348 348 348 348 350 349 347 349 349 348 347 345 343 344 348 345 345 343 342 344 345 348 348 346 346 345 345 344 337 334 339 344 341 338 340 342 341 337 337
349 348 348 347 350 350 349 350 349 348 348 347 347 349 348 347 345 343 346 347 345 345 343 341 342 347 349 348 346 346 346 346 341 337 334 340 343 344 343 338 337 339 341
349 349 350 348 346 347 348 350 350 350 349 349 349 348 348 349 346 345 344 346 347 346 345 343 341 341 344 349 348 344 342 344 344 342 341 334 332 336 340 335 335 336 336
349 347 348 347 349 349 347 347 347 347 348 347 347 347 347 347 346 347 346 346 346 346 347 346 344 341 341 348 344 343 343 343 342 343 337 338 341 337 334 335 336 335 335
351 350 350 347 350 351 350 349 349 348 347 346 346 347 347 347 348 349 346 347 345 345 347 349 346 344 341 343 349 338 335 345 346 341 342 339 340 339 341 342 339 338 339
352 349 347 347 347 347 346 346 346 344 345 345 346 346 344 343 344 345 346 346 345 346 345 346 347 348 346 344 347 348 339 332 342 345 346 342 340 341 342 337 335 338 340
348 347 344 348 348 346 346 345 344 345 346 342 344 342 343 341 341 341 341 346 346 345 346 347 346 347 348 347 345 343 344 342 335 338 340 342 338 339 338 336 334 338 341
349 347 345 345 343 343 340 340 342 342 341 341 344 343 338 340 340 343 342 344 345 344 345 346 346 346 347 349 347 345 344 345 344 338 339 339 340 341 340 338 338 341 340
338 338 341 342 340 342 342 340 341 341 342 340 341 341 339 338 340 339 340 340 344 345 344 345 345 347 346 347 347 347 347 346 345 342 339 340 339 340 340 340 340 340 341
335 335 339 342 342 338 339 341 339 340 340 340 339 340 339 340 338 338 340 340 341 342 343 343 345 341 340 345 349 348 349 348 347 344 340 337 341 342 339 340 341 341 343
337 337 341 340 340 335 337 338 336 338 338 339 339 339 338 338 338 338 338 337 336 337 337 342 342 337 333 337 343 347 347 345 345 347 346 343 343 343 341 341 342 343 342
335 341 338 337 335 336 336 335 336 336 336 336 336 336 337 337 337 337 334 335 336 336 336 336 337 340 338 338 336 339 343 346 344 346 349 347 346 345 342 340 341 341 341
337 336 335 335 335 335 336 335 335 333 336 336 333 333 333 334 335 335 336 335 334 333 334 333 336 338 340 340 341 340 339 337 336 345 346 350 349 347 343 341 339 339 339
335 336 336 336 334 334 335 336 334 333 334 335 333 334 332 330 333 330 332 333 332 330 329 330 332 333 338 341 341 340 336 335 336 341 347 347 347 348 347 346 344 341 338
336 337 336 335 334 335 335 336 334 334 334 333 333 333 331 333 330 330 327 326 331 326 325 326 326 328 332 336 340 340 339 338 339 339 343 344 348 347 346 346 345 344 342
333 335 336 336 335 334 333 335 334 333 332 332 332 332 331 331 328 323 324 322 322 324 324 323 324 325 330 333 338 340 340 338 336 338 340 340 341 348 347 347 346 345 344
337 336 336 335 335 334 335 335 335 333 333 334 333 332 331 331 329 326 324 321 320 321 321 321 322 323 328 334 335 339 340 341 341 340 337 339 341 344 345 344 345 345 345
335 334 332 333 334 334 333 333 333 332 333 333 332 330 331 331 329 326 323 320 321 320 321 319 320 322 324 327 334 337 339 339 339 340 344 339 341 345 345 343 343 343 343
335 334 334 335 334 333 332 332 333 332 332 331 331 331 331 330 329 327 324 321 321 322 320 319 319 321 322 324 327 335 338 339 340 339 337 340 339 343 344 344 344 344 344
335 335 336 334 334 333 333 333 333 333 332 329 328 332 331 330 329 328 327 326 325 324 322 319 319 320 321 323 325 329 336 338 339 340 342 342 341 341 342 340 345 345 345
335 335 335 334 332 333 333 333 330 329 329 329 329 326 328 329 328 328 327 326 326 324 322 320 319 320 321 321 323 325 328 336 338 339 341 341 338 335 340 346 346 345 346
335 336 334 333 333 333 332 331 331 329 327 326 327 326 327 328 327 326 325 323 325 325 324 321 320 321 321 322 322 322 325 331 337 339 341 342 340 346 346 346 346 345 346
337 334 332 334 331 332 331 329 330 328 327 327 327 327 327 327 326 325 324 323 324 323 322 321 321 321 322 322 322 322 323 327 335 337 339 341 342 342 343 340 344 346 346
335 333 333 332 332 333 331 331 328 327 326 326 326 327 327 327 326 325 324 323 321 321 321 321 321 320 320 321 321 321 322 325 330 337 338 339 341 342 342 343 346 346 346
335 334 333 332 333 332 330 329 326 322 324 322 321 323 326 326 325 324 322 321 320 320 319 319 319 320 320 321 321 321 323 326 329 336 338 339 340 341 342 343 344 345 345
335 334 334 327 331 330 329 328 323 324 324 324 324 323 321 324 323 322 322 319 320 318 317 318 319 319 320 321 323 325 322 328 330 334 337 340 341 342 342 345 344 342 344

GFSMA_925_thetae_012.txt.gz
Theta_e
347 349 349 349 347 348 349 349 349 348 347 348 346 347 347 347 345 344 345 347 345 343 342 342 349 347 346 345 344 344 344 344 343 342 343 343 340 336 335 335 337 341 340
349 349 347 347 347 347 349 349 349 349 349 348 348 348 348 347 348 346 344 347 344 344 343 343 345 348 348 347 346 345 345 345 343 343 342 338 340 340 338 339 340 339 337
351 349 349 349 348 346 346 345 347 346 347 347 347 347 347 347 347 345 344 344 346 345 344 344 343 342 347 349 347 345 345 344 343 339 338 338 341 343 343 343 339 336 337
347 349 348 347 347 347 348 346 347 347 348 347 346 345 344 344 345 347 346 346 346 346 346 345 345 343 342 348 349 347 343 343 345 345 339 339 339 333 334 339 338 334 334
350 350 348 348 347 346 346 346 346 346 344 344 344 342 341 342 341 343 344 345 345 345 345 346 345 345 344 342 347 349 347 340 336 340 343 343 338 337 338 334 333 335 336
348 349 348 346 345 345 346 345 345 343 344 346 342 339 340 338 337 337 339 342 343 345 345 344 345 346 346 345 344 343 346 342 337 342 344 341 340 337 340 338 339 341 338
349 346 343 343 345 342 342 340 341 342 344 341 342 341 339 338 338 340 341 343 343 344 344 344 344 346 345 346 346 345 344 344 341 335 342 344 340 342 338 339 341 340 336
347 347 345 345 344 342 340 341 341 340 340 340 341 339 335 338 339 334 337 339 341 341 344 345 343 344 344 346 346 346 345 344 343 343 338 336 343 344 344 339 340 338 335
339 336 340 341 339 340 338 340 339 339 339 339 338 340 337 335 336 337 337 336 337 333 337 339 341 343 344 344 345 346 347 346 344 344 344 344 340 338 336 336 339 339 338
334 335 337 339 340 339 337 338 337 337 337 338 337 338 338 338 335 334 336 335 332 332 332 333 336 341 341 340 341 342 342 346 346 345 344 344 345 341 339 338 339 340 339
336 337 340 341 339 332 335 336 335 336 336 336 336 337 336 336 337 334 332 333 332 329 331 330 331 332 332 338 337 333 336 336 344 345 346 345 344 344 341 339 341 340 339
333 338 340 336 333 331 334 334 334 332 336 336 335 334 334 334 334 334 330 331 332 331 326 328 326 328 331 334 339 340 337 335 339 341 345 345 345 346 344 343 343 344 340
338 338 335 333 332 330 333 334 334 332 334 335 332 332 332 331 333 333 333 330 329 327 329 324 325 323 326 329 332 335 340 340 340 339 338 345 344 342 348 346 345 347 348
335 335 335 335 335 333 335 335 336 334 334 335 333 333 332 330 331 329 330 327 323 324 324 322 323 321 320 322 326 331 335 339 340 340 338 338 335 335 343 346 347 346 345
336 336 336 335 334 334 333 333 335 333 333 333 333 332 332 330 331 327 322 322 323 319 318 321 320 319 317 318 322 329 332 334 337 340 338 336 335 339 346 346 347 347 345
335 334 335 336 335 334 333 333 334 335 333 332 332 332 332 331 331 328 324 322 319 321 319 320 319 319 318 318 320 324 332 334 337 339 340 337 335 339 344 344 346 346 346
334 336 336 335 334 334 334 333 333 334 333 332 333 333 332 331 330 329 327 323 319 320 319 320 319 320 320 319 319 321 324 330 334 337 338 340 336 336 341 339 338 345 347
334 334 334 333 332 333 333 333 332 332 333 332 332 331 330 330 331 330 328 325 322 321 321 321 320 320 320 319 319 321 323 325 333 335 337 338 338 339 339 338 339 342 345
334 334 333 333 334 334 333 332 331 332 331 332 331 330 330 330 330 330 329 328 326 324 323 321 321 320 319 319 319 320 321 323 327 331 336 338 338 337 340 342 340 342 344
335 334 334 334 335 334 333 333 333 332 330 332 331 328 327 329 329 329 329 328 327 326 325 321 320 320 319 319 319 320 321 321 322 325 335 338 337 339 339 340 338 338 343
336 335 335 335 335 333 332 333 332 330 330 328 328 328 327 326 328 328 328 327 327 326 324 323 321 321 320 320 320 320 321 322 321 322 327 336 338 339 339 340 338 339 343
337 336 334 335 334 332 332 332 332 330 328 327 326 326 326 326 326 327 327 326 326 326 324 323 323 321 321 320 320 321 321 320 321 322 328 335 338 339 339 340 339 336 336
336 336 335 336 333 333 331 332 330 330 328 326 327 327 327 326 326 327 326 325 324 323 322 321 321 320 320 320 320 321 321 321 321 321 323 328 338 340 338 340 340 338 342
337 338 337 334 333 331 332 330 330 328 326 323 324 324 322 325 326 326 324 323 322 321 321 319 318 318 318 318 319 319 320 320 321 320 321 325 333 339 340 341 340 342 344
338 337 336 334 333 332 329 329 329 327 324 323 322 324 323 321 323 323 322 321 321 321 320 318 317 318 318 318 318 319 320 321 321 320 321 324 332 337 339 340 340 340 340
337 337 335 333 329 330 329 329 328 324 323 323 324 322 320 321 323 321 320 319 317 318 319 317 318 319 319 318 318 319 322 322 321 321 322 328 334 337 339 340 340 340 340

GFSMA_925_thetae_015.txt.gz
Theta_e
348 347 349 347 349 347 348 348 348 348 348 347 347 347 348 347 347 347 343 345 347 344 341 343 346 348 346 345 345 346 345 343 343 343 343 342 342 342 339 337 339 338 337
350 350 349 347 348 347 348 346 346 346 347 347 347 346 347 347 347 346 346 344 344 344 343 342 343 348 349 347 346 345 345 345 344 343 342 340 341 340 336 339 339 340 341
350 350 350 347 347 347 346 347 347 346 347 346 347 346 345 344 344 345 345 344 345 345 343 343 342 343 346 348 347 346 344 343 343 343 341 339 338 338 341 338 339 341 340
347 350 347 346 347 346 345 346 346 346 345 344 342 341 338 338 339 341 344 345 344 345 345 344 343 343 343 346 348 348 345 343 343 342 342 338 336 337 342 343 342 343 339
349 350 347 347 346 345 345 345 345 344 341 343 342 339 338 336 337 338 337 339 342 345 345 344 345 344 343 343 344 346 346 345 343 342 344 344 341 337 338 334 334 335 336
347 347 348 347 344 344 344 341 339 340 342 344 341 337 335 336 337 339 338 341 342 343 343 344 345 344 344 344 343 343 345 346 347 343 337 339 343 343 341 339 340 338 335
350 348 344 342 343 342 341 340 339 340 341 339 339 337 335 337 338 335 336 339 339 341 343 343 344 340 342 344 343 343 343 343 344 345 342 334 337 342 341 340 337 341 339
347 345 343 344 343 342 340 339 339 339 339 339 338 337 332 336 338 336 337 334 335 332 337 340 342 343 343 342 343 343 343 344 344 343 343 342 338 336 342 340 341 339 339
348 345 343 343 341 339 336 338 338 337 337 338 337 337 332 332 334 336 336 333 330 329 330 333 334 338 341 341 341 342 343 344 344 344 344 344 343 342 339 336 338 342 341
333 334 335 336 337 337 336 336 335 335 336 336 338 337 337 337 332 332 334 332 329 326 326 328 327 330 333 336 339 339 338 335 339 343 345 345 343 345 345 344 339 335 335
335 336 338 338 339 334 334 334 334 335 334 335 336 336 335 335 336 331 330 330 327 324 322 323 325 323 324 325 328 332 336 338 337 336 337 345 344 344 344 345 345 341 337
335 336 338 340 335 333 333 333 333 332 335 335 333 333 332 332 332 332 328 328 329 324 323 320 320 318 317 317 320 324 326 335 338 339 338 338 343 344 344 344 344 347 347
334 337 339 334 332 330 331 333 334 333 333 333 333 331 332 330 331 333 331 328 326 324 323 320 320 317 316 316 316 318 323 327 330 335 339 340 338 340 345 345 344 344 346
335 336 334 334 334 332 333 334 334 335 333 333 334 332 331 331 331 329 329 325 318 320 321 319 319 318 317 318 318 318 320 322 329 331 333 336 340 339 338 341 343 343 345
333 334 335 335 335 333 333 331 332 334 333 333 333 332 332 331 330 329 325 321 319 315 314 319 320 319 317 317 319 319 319 320 322 330 333 334 336 340 339 336 337 335 336
334 335 335 335 334 334 333 333 332 333 334 333 332 332 332 331 331 330 328 324 321 318 316 319 320 321 319 317 318 319 319 319 320 323 329 332 333 336 339 338 335 336 343
335 335 333 335 335 334 333 333 333 332 333 333 332 332 332 332 332 330 328 327 325 320 318 319 321 323 322 319 319 319 319 319 319 320 322 330 333 334 336 339 338 337 343
331 332 334 335 334 333 333 333 332 331 331 332 332 332 331 331 331 330 329 328 327 325 320 318 321 322 322 320 319 319 319 319 319 319 319 322 329 333 335 338 338 336 340
332 334 334 333 332 332 333 333 332 332 332 332 331 331 331 330 329 328 329 329 328 326 324 320 321 322 320 320 320 319 319 319 319 320 320 320 322 332 334 337 338 338 338
334 334 334 333 332 333 334 333 332 332 332 330 328 328 330 329 327 328 328 329 328 327 326 323 322 321 320 320 320 319 318 319 319 320 320 320 321 321 331 336 336 338 337
335 334 334 333 333 334 335 332 332 332 331 330 328 327 327 327 327 326 326 327 327 327 325 323 322 322 321 321 319 319 319 319 319 320 320 320 320 322 325 334 336 337 337
334 330 335 335 334 335 334 331 332 331 331 329 327 326 326 326 327 326 326 326 327 327 326 324 323 322 321 320 319 318 318 319 320 319 320 320 321 322 331 334 337 335 337
332 334 336 336 334 334 333 332 331 330 329 329 327 325 324 324 325 325 325 326 325 324 323 322 321 320 320 318 318 318 318 318 318 319 320 321 320 320 322 335 336 337 337
334 334 336 336 335 335 333 330 331 330 329 327 324 323 322 322 322 322 323 324 322 322 321 320 319 319 317 317 317 317 318 318 319 319 319 321 320 320 322 327 337 338 336
335 336 336 336 336 334 332 331 330 329 328 325 323 322 323 322 321 322 322 321 320 320 319 318 318 319 318 318 318 318 318 319 319 319 320 320 320 320 322 328 335 338 338
336 336 336 336 334 333 331 329 329 328 325 323 323 322 321 320 320 321 319 317 316 316 316 317 318 319 318 318 316 317 317 318 319 319 320 321 320 320 324 328 336 338 339

GFSMA_925_thetae_021.txt.gz
Theta_e
350 347 346 345 346 347 349 345 347 348 349 349 350 349 348 348 349 348 348 344 344 343 344 342 343 347 347 345 344 347 346 345 339 343 342 339 341 338 342 340 339 335 337
350 347 347 346 346 347 349 347 346 347 350 349 349 349 348 347 346 346 347 348 343 344 343 343 342 342 344 348 345 343 344 346 345 341 342 345 342 340 339 341 341 336 335
349 348 348 346 347 347 346 346 345 349 345 347 348 345 344 342 341 340 342 345 347 343 344 343 343 342 342 344 346 345 344 341 346 343 340 338 340 339 339 340 338 337 337
347 346 346 344 347 345 348 347 347 347 347 346 345 343 342 340 340 340 340 341 342 344 346 344 343 343 342 342 344 343 345 345 341 342 343 341 341 338 335 339 340 338 340
346 348 346 346 346 346 344 346 346 343 343 342 340 339 340 340 340 339 342 343 342 342 344 346 343 342 342 344 346 343 342 343 344 344 341 340 341 343 341 335 334 337 343
346 346 345 345 347 348 346 343 341 342 341 340 339 338 339 340 339 340 343 340 343 343 346 346 347 347 344 343 344 343 343 342 342 342 343 343 342 341 342 343 341 335 335
347 347 345 346 347 346 343 340 341 341 340 342 339 336 338 339 338 339 340 335 335 337 340 344 346 347 347 344 341 341 343 343 342 342 343 342 343 343 340 337 341 343 342
350 349 347 347 344 344 341 339 341 337 339 341 339 339 337 339 339 338 336 332 332 334 334 335 338 342 345 346 344 343 343 344 344 343 343 342 342 342 342 342 339 335 338
349 349 347 345 343 343 340 338 339 340 337 339 339 339 337 337 336 337 338 332 330 328 330 332 333 330 329 332 335 338 338 339 342 343 345 347 347 345 343 342 342 342 338
348 348 345 344 340 339 336 338 338 338 337 336 338 339 339 338 337 336 332 331 329 327 329 325 326 320 317 321 318 319 322 327 332 337 337 336 338 343 345 345 344 343 342
349 349 347 339 333 336 337 333 332 335 337 337 338 337 338 336 336 334 331 329 328 327 326 326 324 324 323 319 323 323 317 317 319 322 324 328 337 337 340 341 343 345 343
344 339 337 335 334 337 336 334 334 335 337 338 337 336 334 332 332 333 334 333 331 327 325 326 326 323 322 322 320 318 318 318 318 319 320 321 325 329 336 340 343 346 347
340 335 335 336 337 338 332 333 333 336 336 336 337 335 334 334 334 333 333 331 331 328 326 325 324 324 323 323 322 317 318 318 318 318 318 319 320 322 328 333 339 342 345
338 336 335 336 338 335 331 332 336 336 336 336 337 336 335 335 334 334 333 332 331 327 325 326 324 323 324 324 324 320 323 317 318 318 317 317 318 318 319 327 332 335 338
337 333 333 335 338 332 331 335 336 336 334 336 336 336 335 334 334 333 333 332 330 331 328 325 324 324 325 325 326 326 325 321 318 318 317 317 317 316 317 318 321 330 334
334 334 335 337 334 334 334 333 335 334 335 335 336 336 336 334 334 333 333 332 331 329 330 325 325 325 326 326 326 326 326 321 319 319 318 317 316 316 317 317 318 319 328
331 334 335 334 336 336 335 334 335 336 336 336 336 335 336 335 334 333 333 332 331 330 329 326 326 327 326 327 328 328 327 326 324 322 320 318 317 317 317 318 318 318 319
333 333 333 334 335 337 337 336 336 335 336 335 334 335 335 334 335 329 331 332 331 331 329 329 328 328 328 328 328 328 327 325 324 323 321 317 317 318 317 317 318 318 318
335 335 335 335 334 337 335 334 333 335 335 332 334 335 335 334 334 331 332 331 331 331 330 329 327 327 327 327 326 326 326 325 325 323 321 320 320 319 318 318 318 318 319
327 331 334 333 333 332 333 333 333 333 334 334 334 335 335 333 333 330 331 330 331 330 329 328 327 327 327 326 325 325 325 324 324 323 322 321 321 320 319 320 320 320 319
331 328 332 332 331 332 334 332 334 334 337 336 335 335 333 330 328 327 329 329 330 330 328 328 327 327 326 325 325 324 324 324 323 322 321 321 321 320 320 320 320 321 321
331 331 332 334 333 333 334 332 333 336 337 336 335 334 333 330 328 326 324 322 325 329 328 328 327 327 326 326 324 324 324 322 324 321 322 321 320 320 320 320 320 321 321
333 333 329 335 337 335 333 332 333 334 337 336 335 334 330 331 328 326 323 323 324 323 323 326 326 325 325 323 323 322 321 321 322 322 320 321 320 320 319 320 320 320 320
335 334 335 337 337 336 334 333 334 333 334 335 335 332 332 330 327 323 324 325 325 325 324 323 322 321 321 320 319 319 318 319 320 320 320 322 320 319 318 318 319 319 319
336 336 336 337 337 337 336 334 331 330 331 331 331 330 327 325 324 323 322 324 323 323 322 318 317 316 315 316 316 315 317 321 321 320 319 319 318 317 318 318 319 319 319
336 337 336 337 334 334 334 331 325 328 330 330 328 326 324 323 322 320 320 322 322 321 319 318 318 317 317 318 317 318 319 320 320 320 318 317 317 317 319 319 320 320 322

GFSMA_925_thetae_024.txt.gz
Theta_e
351 352 352 349 349 349 350 350 350 350 351 350 350 350 350 350 350 348 347 347 344 343 345 343 346 346 346 346 346 347 346 343 338 339 341 345 344 340 340 339 341 341 338
351 349 348 350 350 349 351 351 350 350 350 350 350 349 349 348 347 348 347 348 346 344 343 343 343 343 343 347 346 345 347 347 345 342 343 338 340 340 336 339 342 337 335
351 350 349 349 348 351 351 350 350 350 349 347 347 347 346 345 342 342 341 342 346 346 342 343 343 342 342 342 346 347 341 339 343 345 342 338 342 345 341 337 338 338 335
349 349 349 347 348 351 351 350 349 344 341 340 339 339 339 338 336 337 337 338 336 339 345 343 343 343 343 343 344 344 345 344 344 341 345 342 340 339 338 337 341 341 337
351 351 350 350 351 350 349 349 344 343 338 336 333 332 335 337 337 337 340 341 340 339 338 343 344 343 342 345 346 345 344 342 343 344 342 341 342 341 342 340 335 335 336
352 352 350 350 349 350 349 346 346 340 336 337 336 334 337 338 339 340 341 339 342 343 343 345 344 344 345 343 343 344 344 342 342 342 342 344 342 341 341 342 342 340 335
351 352 350 350 348 349 347 347 341 334 334 338 337 334 335 338 338 339 340 338 338 340 342 344 345 343 346 346 343 344 344 345 344 342 342 342 341 342 343 342 341 340 343
354 351 351 351 350 345 348 345 339 333 335 339 337 335 336 338 338 338 338 334 334 335 336 339 343 345 345 345 346 343 342 344 344 346 345 344 342 342 342 342 343 342 338
355 354 352 350 351 347 341 340 338 339 334 336 339 337 337 337 335 338 339 333 332 331 332 334 334 332 333 335 339 338 336 338 340 343 344 345 345 345 344 344 343 343 342
353 353 352 351 351 343 339 337 337 337 338 334 336 338 339 339 338 337 334 332 330 329 329 327 327 327 327 327 327 322 318 321 324 328 334 338 339 340 342 346 346 346 344
353 350 353 351 349 339 340 340 339 338 335 336 336 336 337 336 336 334 333 331 330 329 328 328 326 326 326 326 326 325 318 318 318 318 320 321 325 331 336 338 340 343 344
348 352 351 350 344 338 342 340 338 337 338 338 336 336 334 333 333 334 334 334 333 330 328 327 327 326 325 325 323 319 318 318 318 318 318 319 319 320 323 327 337 342 344
343 347 348 345 343 343 342 339 338 337 337 336 337 335 334 334 333 333 332 331 331 330 328 327 326 326 326 326 326 325 322 320 318 318 318 318 318 318 318 319 323 329 340
341 344 345 344 343 343 342 339 337 337 337 336 336 336 334 333 332 332 332 331 332 328 328 330 328 326 325 326 326 326 328 327 323 318 318 318 317 317 317 317 317 318 324
341 343 344 344 343 342 340 339 337 338 337 336 335 336 336 332 332 332 331 331 331 333 331 329 328 327 327 327 327 328 328 329 327 321 318 318 318 317 317 317 317 318 317
342 342 342 342 342 342 339 340 337 336 337 334 335 335 336 333 332 332 332 332 332 332 333 328 327 327 328 329 329 329 330 329 328 327 325 321 319 319 317 317 317 317 318
341 341 342 341 342 340 340 340 338 335 336 337 336 335 335 336 334 332 332 332 332 331 331 329 328 328 329 331 330 330 330 329 328 327 325 324 322 320 318 317 318 318 317
335 330 335 331 336 340 340 339 338 335 337 337 336 335 335 334 334 335 332 331 331 331 330 331 330 329 329 328 329 330 330 328 327 327 326 325 324 321 320 319 320 319 318
333 332 327 328 335 340 340 339 339 338 337 336 335 335 335 334 334 333 333 331 330 330 330 331 331 329 328 328 328 329 328 326 326 326 325 324 324 323 322 321 321 320 320
333 327 327 330 332 340 339 338 338 337 336 336 336 336 336 334 334 333 333 332 332 332 330 329 329 329 328 328 328 328 327 325 324 325 325 324 323 322 322 322 322 321 321
329 328 333 332 339 339 336 337 337 337 337 337 337 336 336 335 333 332 331 330 331 329 329 327 327 327 328 329 329 327 325 325 324 325 323 322 322 323 323 323 323 322 322
328 337 338 337 338 335 333 334 336 336 336 338 337 336 336 335 333 331 329 327 326 327 328 328 327 328 328 328 325 325 325 324 326 322 322 322 323 324 323 323 322 321 320
335 339 339 339 338 337 336 334 333 334 335 338 338 338 335 333 332 333 332 329 326 327 326 326 327 327 326 325 325 325 324 323 322 322 323 324 323 323 322 322 322 321 320
336 338 339 340 339 338 338 338 334 334 334 336 335 331 330 331 332 331 331 329 329 328 328 328 326 325 324 323 322 320 320 320 321 322 322 325 324 323 321 321 320 320 319
338 338 339 340 340 339 339 339 336 335 335 333 329 327 328 330 330 327 327 327 327 326 325 324 322 320 319 318 318 319 320 321 323 322 322 323 321 321 321 320 318 319 319
340 340 340 341 339 340 339 339 337 336 333 329 327 328 327 329 326 326 323 325 325 325 324 323 321 320 320 321 320 320 320 322 322 322 319 320 320 320 318 317 318 320 321

GFSMA_925_thetae_027.txt.gz
Theta_e
350 350 352 350 348 348 351 350 349 351 350 351 349 351 350 349 347 348 350 346 343 342 345 348 351 350 348 346 341 346 346 343 335 337 341 344 345 343 340 337 340 345 343
351 352 352 349 351 348 350 351 352 351 350 350 349 349 348 348 347 347 346 349 347 344 341 342 346 345 344 345 345 343 347 346 344 338 337 338 345 345 340 338 342 341 340
352 350 351 351 348 349 352 353 352 350 347 347 345 349 345 345 343 340 340 338 345 348 344 340 340 342 341 342 343 345 336 344 347 345 341 340 335 337 341 339 337 335 336
354 353 351 350 349 350 351 351 349 346 343 341 338 337 337 337 336 335 336 337 337 336 346 344 341 341 342 342 342 342 345 344 338 339 343 344 341 336 342 343 339 339 341
353 353 352 351 352 351 351 350 347 343 340 334 332 332 334 336 337 337 339 341 340 338 336 344 342 342 342 343 347 343 343 343 344 344 343 342 343 342 341 340 339 335 339
353 353 351 351 352 349 351 348 347 342 336 337 336 334 336 337 337 338 340 339 341 341 343 344 346 347 342 342 343 343 343 343 342 342 342 343 343 342 341 341 341 342 339
355 353 352 351 351 350 348 346 343 334 335 336 337 336 334 337 338 338 339 337 339 340 341 343 346 346 344 344 344 344 344 344 344 343 342 341 342 343 343 343 342 341 341
355 351 352 349 350 349 349 344 342 337 333 339 337 335 338 338 338 338 337 335 335 335 337 340 342 344 346 346 345 342 343 342 343 344 344 344 342 342 342 342 341 342 343
349 354 354 352 353 343 344 344 339 338 334 335 339 337 339 341 336 337 339 335 334 333 333 336 334 334 336 338 342 338 334 338 339 341 343 344 344 344 343 343 342 342 342
347 354 352 348 350 347 341 338 338 337 336 334 335 338 339 339 340 340 336 335 333 332 331 329 330 330 329 330 329 322 317 318 320 323 326 332 338 340 341 342 345 346 345
348 347 347 350 349 342 343 339 339 339 336 335 336 335 337 336 337 334 336 335 332 332 330 330 329 328 329 327 329 327 317 317 318 318 318 319 320 322 328 336 338 342 343
348 347 348 350 349 344 341 341 340 338 338 339 338 336 334 334 334 334 335 334 334 332 331 330 329 329 327 327 326 324 321 318 317 318 318 318 318 318 319 320 323 328 337
343 348 348 352 349 345 342 341 341 339 339 338 338 336 334 333 333 333 332 332 332 331 331 329 328 328 328 328 328 327 327 324 324 320 317 318 318 317 317 317 317 318 321
342 347 350 350 347 345 343 342 339 338 338 338 338 337 335 333 332 332 332 332 332 331 329 332 331 330 329 328 328 326 329 329 329 329 325 318 318 318 317 317 317 317 317
342 349 349 347 346 344 343 342 340 339 339 338 337 337 337 334 332 332 332 331 331 333 332 331 330 330 329 329 329 329 330 331 330 329 328 324 320 318 318 318 317 317 317
343 345 347 346 345 342 342 341 338 339 339 337 335 335 336 334 333 332 333 332 333 333 335 331 330 329 330 330 331 331 331 330 330 330 330 328 327 324 321 319 319 318 317
347 345 346 345 344 342 343 341 339 339 338 338 338 337 336 336 335 333 332 333 332 331 334 332 331 330 332 331 331 331 332 331 330 330 328 328 327 325 325 323 321 318 317
350 346 345 344 343 343 342 341 341 338 337 338 337 337 337 335 336 336 335 332 331 331 332 334 331 332 331 331 331 330 330 330 329 329 328 327 326 325 324 323 323 322 320
350 345 343 343 339 342 340 342 341 340 337 337 337 337 336 336 335 335 335 335 330 331 333 333 331 329 329 330 330 330 330 328 330 329 328 327 326 326 325 324 324 322 322
348 343 339 341 340 341 339 342 341 340 339 337 337 337 336 336 336 335 335 335 334 332 332 331 332 330 329 329 330 330 329 329 329 326 327 324 325 326 324 323 323 323 323
346 342 341 340 341 337 339 341 338 339 339 338 337 338 337 336 336 335 334 332 333 331 329 329 329 328 326 329 329 329 328 326 326 325 324 325 325 324 322 324 325 324 324
345 342 340 339 340 341 339 337 338 338 338 338 338 338 338 337 337 334 332 333 330 329 331 330 329 328 329 328 328 327 327 325 325 323 323 323 322 323 325 325 325 324 323
345 342 340 341 342 342 338 334 333 336 338 338 338 340 338 337 334 329 330 331 330 330 328 328 330 330 329 328 327 327 326 326 324 322 322 323 323 325 324 324 323 324 322
347 342 341 341 341 342 340 335 334 334 336 337 339 341 338 335 330 329 329 329 331 330 330 329 329 329 328 326 325 323 322 322 321 321 322 326 325 325 323 324 324 321 321
348 344 342 342 342 342 341 339 337 337 337 338 338 339 335 332 329 328 329 328 326 329 329 328 326 324 323 321 320 320 320 322 323 323 322 323 324 322 322 321 322 321 320
349 345 341 342 341 342 342 341 338 339 339 339 340 338 334 330 328 327 327 328 329 329 327 327 327 325 322 322 320 321 322 323 323 323 320 321 319 319 323 321 320 319 319

GFSMA_925_thetae_030.txt.gz
Theta_e
350 349 351 350 351 350 349 351 351 351 350 351 348 351 348 349 349 349 349 345 344 341 344 344 350 349 347 346 347 346 343 338 339 344 345 345 343 342 343 341 336 342 343
352 352 354 351 351 349 351 352 351 347 351 349 351 350 343 345 346 345 348 347 346 344 342 341 342 348 347 348 343 346 346 345 338 334 338 340 344 344 342 339 337 336 341
353 352 352 352 352 349 349 351 351 349 349 347 345 349 344 344 345 339 339 338 346 346 344 341 339 340 342 342 343 343 340 345 345 343 339 337 340 342 344 337 334 336 338
355 353 354 352 352 350 350 350 350 347 346 339 334 336 336 336 335 335 335 338 339 342 345 343 340 339 339 340 341 342 343 340 340 344 343 343 341 338 336 341 342 339 336
354 353 351 351 352 349 350 351 347 346 341 335 335 334 335 335 337 337 339 339 340 339 339 346 342 342 341 343 343 342 342 343 344 342 340 339 340 342 340 337 339 338 335
352 353 352 351 352 351 350 349 346 342 336 337 338 335 335 337 338 339 338 340 340 341 344 345 345 346 343 343 346 344 342 342 342 342 343 343 342 342 341 342 341 340 341
354 351 350 350 351 350 347 347 343 338 334 338 335 339 340 337 336 339 338 337 338 339 340 343 344 345 343 342 343 344 343 343 343 343 342 342 342 342 343 343 343 342 340
351 349 349 352 350 350 348 345 342 340 335 339 337 336 343 341 338 338 337 335 333 334 340 341 340 342 343 345 342 342 343 343 342 342 342 342 342 341 342 342 342 342 342
350 355 352 350 351 349 350 344 341 337 338 338 336 339 346 344 341 338 337 335 333 333 335 335 333 332 338 338 341 336 326 336 339 340 341 343 343 343 343 343 342 342 341
348 349 347 352 350 347 344 339 341 333 335 336 336 338 336 335 345 342 337 335 332 332 329 332 329 329 329 331 331 323 317 317 318 319 323 327 333 338 341 342 343 344 344
347 351 350 348 348 347 341 338 339 337 339 335 339 336 337 336 335 337 341 336 334 332 331 329 329 330 328 328 332 327 322 317 317 317 318 318 318 319 321 325 333 338 341
348 349 346 348 347 345 342 340 340 339 337 339 337 334 334 336 337 339 341 336 334 333 331 330 330 329 328 329 328 326 326 326 323 319 317 317 318 318 318 318 319 321 326
349 347 348 351 349 345 342 341 341 341 340 338 340 337 335 335 333 333 332 335 337 332 332 331 329 329 328 329 328 328 327 327 328 327 328 323 317 317 317 317 317 317 317
347 348 347 350 351 346 343 341 341 336 339 339 337 337 337 335 333 333 333 334 336 333 332 333 330 330 329 328 328 327 328 330 330 330 330 329 327 320 318 318 317 317 317
348 347 347 351 349 346 343 342 340 339 340 340 338 337 337 336 334 333 333 332 335 338 336 332 333 331 330 329 330 329 330 330 330 331 330 328 328 327 324 321 319 318 317
349 348 347 348 347 346 344 343 339 340 340 339 338 336 338 337 334 335 332 333 332 332 337 332 331 332 332 331 331 332 331 330 330 331 331 330 329 328 327 326 324 321 319
352 350 347 346 349 348 345 343 341 339 338 338 337 336 338 336 335 334 335 335 334 333 335 331 331 332 331 330 330 330 330 330 333 332 330 330 329 328 327 326 325 324 322
357 349 347 348 347 348 345 345 338 339 341 340 339 338 337 337 336 335 335 335 333 332 333 334 333 333 332 332 331 331 330 331 330 331 329 329 328 327 327 326 325 324 324
359 349 347 347 349 347 344 344 341 338 339 337 338 339 337 337 337 335 336 335 335 334 334 333 334 333 331 330 330 331 331 330 329 328 328 328 327 328 327 326 326 325 325
361 353 350 348 348 346 345 344 344 343 340 339 339 338 338 338 336 336 335 334 335 334 334 332 332 332 332 330 330 329 329 329 329 327 328 329 326 325 327 326 325 325 324
362 356 352 349 347 344 344 343 344 343 341 340 339 338 337 338 336 338 336 336 333 329 329 330 330 329 329 329 329 328 329 330 328 327 325 324 324 324 323 323 323 323 326
361 356 351 348 346 342 341 339 343 342 342 342 340 340 338 339 338 337 335 332 328 330 330 329 331 330 329 329 330 329 329 328 327 327 326 324 323 323 322 320 324 324 325
359 354 350 347 344 342 338 337 342 342 340 341 341 340 340 340 339 337 335 327 329 329 329 329 329 328 329 328 328 328 328 327 326 324 322 322 322 323 324 325 325 326 323
357 352 348 345 342 343 343 340 339 337 339 340 341 340 340 340 339 337 334 329 327 328 329 329 328 328 327 327 327 326 322 321 321 322 323 324 322 324 325 325 323 323 321
355 352 347 344 343 344 343 342 337 335 334 334 338 338 339 342 340 337 332 328 329 327 327 326 327 328 328 327 325 323 321 322 322 322 323 323 323 323 320 320 319 320 320
355 350 347 344 343 343 344 342 339 337 335 336 339 338 337 338 338 335 331 329 331 330 330 329 328 328 326 324 321 322 322 322 322 323 323 322 317 316 315 316 320 322 322

GFSMA_925_thetae_033.txt.gz
Theta_e
350 350 350 350 350 348 350 349 348 349 350 349 348 348 344 348 347 344 345 340 342 341 342 348 349 346 346 346 346 343 337 331 335 342 345 344 339 338 343 340 339 336 341
350 351 353 352 350 349 350 350 350 349 349 347 346 349 343 342 349 347 347 345 344 342 341 340 343 348 347 348 347 346 346 341 332 330 339 339 339 341 340 338 335 334 337
348 349 349 348 350 349 349 349 348 349 346 343 336 347 342 341 345 342 338 340 338 342 343 340 339 339 346 349 345 343 343 345 343 337 332 329 331 340 342 342 336 333 337
350 353 348 349 353 350 350 349 348 346 342 338 332 333 341 335 335 335 335 337 338 341 344 342 340 338 338 342 341 344 343 341 342 344 343 340 337 338 335 339 337 339 337
351 349 351 350 351 351 351 349 346 343 334 334 337 336 335 336 336 338 338 340 341 342 344 343 341 341 340 339 344 341 341 342 342 340 340 342 342 342 341 335 334 339 340
351 350 352 351 349 352 349 349 346 340 335 338 336 335 336 337 336 340 340 340 342 342 343 345 343 345 342 343 343 343 342 341 342 343 343 342 341 340 340 341 341 340 339
353 351 351 350 351 352 348 346 343 336 332 338 335 334 337 337 335 339 338 337 338 341 342 344 343 346 344 342 341 342 342 342 342 341 342 341 342 342 342 341 341 340 340
348 348 348 349 350 349 347 345 338 334 340 337 335 337 336 339 338 337 336 334 334 340 340 339 337 342 342 343 341 342 343 343 342 341 341 341 342 342 342 341 342 342 342
350 352 349 349 349 350 347 344 339 335 335 337 336 337 336 337 340 338 335 334 333 334 336 332 327 339 341 334 339 333 323 337 340 341 341 342 343 343 342 342 342 342 342
353 352 352 350 350 344 348 339 336 336 333 334 339 337 335 335 336 335 335 334 331 332 332 331 329 328 329 330 329 324 317 317 317 318 319 323 329 335 339 341 342 343 343
349 348 349 352 349 347 342 338 338 330 338 338 338 340 337 336 335 333 333 336 332 332 329 330 329 329 327 327 327 327 325 325 322 320 317 317 317 317 318 320 323 330 338
348 349 348 350 348 346 340 338 337 333 336 338 337 335 336 338 337 337 331 331 333 335 330 329 329 328 328 328 328 327 327 327 326 326 323 321 318 317 317 317 318 319 321
347 349 350 346 348 344 342 340 337 333 332 337 333 335 335 335 335 333 332 331 331 331 333 331 330 329 329 328 328 328 327 327 328 328 328 328 328 326 320 317 317 317 317
346 347 347 345 349 344 343 340 340 337 340 335 340 334 335 335 335 333 333 333 328 330 331 333 332 330 328 328 328 328 327 327 329 329 329 329 328 327 326 323 320 318 317
347 347 347 348 349 347 343 342 340 337 338 338 336 337 333 333 335 333 332 332 331 330 329 331 330 331 331 328 328 329 328 329 330 329 328 329 330 329 328 327 326 324 323
350 349 347 348 349 348 344 342 341 337 338 339 339 336 336 336 337 333 334 333 333 332 327 331 330 330 332 331 331 331 331 332 331 329 329 331 330 329 329 329 328 327 326
354 352 348 347 348 347 343 343 341 339 340 338 338 338 338 338 337 334 335 335 334 334 333 332 331 332 333 332 331 331 330 329 328 328 330 331 331 330 328 328 327 326 325
354 352 347 347 347 345 345 345 342 341 338 340 339 338 337 337 336 332 333 333 334 333 334 333 332 331 332 331 332 329 329 331 329 329 329 329 329 327 328 327 328 328 326
354 354 349 346 345 344 343 345 342 340 339 340 338 337 336 336 335 337 336 337 336 335 334 333 333 332 331 331 330 332 332 331 330 328 327 328 327 328 327 325 325 325 326
358 356 353 348 346 346 344 346 344 342 337 340 340 339 338 336 336 336 335 335 334 334 334 334 332 331 330 329 329 329 328 327 328 329 329 328 326 324 324 324 323 323 323
360 358 354 350 348 347 346 346 343 342 338 337 340 337 338 336 337 337 336 335 335 335 334 330 329 329 329 328 328 328 330 329 328 327 326 324 325 325 324 322 318 319 320
362 361 356 351 349 349 347 344 339 342 338 340 341 339 339 337 338 338 337 337 335 335 331 329 329 329 329 329 329 329 328 327 326 325 326 323 321 319 320 321 321 322 323
363 363 358 354 351 349 347 344 342 341 341 343 341 339 340 338 338 338 338 336 335 331 328 328 329 329 328 326 325 327 327 327 327 324 319 320 321 322 322 322 322 323 323
364 361 357 355 351 349 345 341 341 343 343 343 341 341 340 339 339 337 337 335 334 330 328 327 328 329 327 324 328 328 328 326 323 321 320 321 322 323 322 321 319 317 316
362 359 357 352 349 346 344 340 338 337 341 342 341 340 339 340 338 338 337 336 334 331 329 327 327 327 328 327 326 328 325 322 320 321 321 322 322 321 316 312 310 313 316
361 357 354 351 347 344 342 341 339 340 339 338 337 338 334 338 336 335 334 334 331 330 329 330 330 329 327 326 322 323 323 322 321 321 322 322 320 319 313 313 314 317 318

GFSMA_925_thetae_036.txt.gz
Theta_e
350 349 349 350 350 348 349 348 348 348 346 349 349 347 346 347 345 340 344 339 340 342 343 348 347 346 345 346 345 343 343 344 344 342 343 340 336 334 334 335 335 336 340
350 350 349 348 351 349 349 346 347 349 349 346 339 344 349 345 347 344 340 343 342 340 340 342 344 348 348 347 346 346 343 341 340 342 343 343 339 335 340 342 338 334 334
349 350 348 348 349 349 348 349 348 348 341 337 335 343 346 348 346 345 341 342 342 342 341 339 339 341 344 349 348 345 345 343 340 333 339 342 339 339 340 342 338 333 333
349 349 349 347 349 350 348 348 347 345 341 338 334 335 334 339 343 340 338 336 336 342 341 341 339 338 339 347 347 342 342 341 343 343 338 334 332 332 337 340 342 336 334
350 351 348 349 350 352 351 349 346 343 334 336 337 337 335 335 336 337 337 339 339 340 343 343 341 340 339 344 346 341 341 341 341 341 343 342 341 339 339 337 334 335 340
352 351 348 350 350 351 351 348 347 342 333 335 335 335 336 336 338 339 339 341 339 342 344 344 342 342 342 341 343 343 342 341 341 342 341 340 339 339 339 340 340 337 336
351 350 348 350 351 351 350 347 345 339 332 337 334 330 338 337 336 340 339 341 341 341 340 344 343 344 344 342 341 340 342 342 341 341 341 341 342 342 342 341 340 340 340
350 352 348 349 348 351 348 346 340 332 337 336 334 336 335 337 337 337 335 335 341 340 338 333 334 342 343 341 341 342 343 342 342 343 342 341 341 341 342 342 341 341 342
347 350 348 348 349 349 348 345 337 334 336 338 335 337 334 334 338 337 333 338 340 338 333 328 327 339 341 334 336 326 327 340 342 341 341 340 342 343 343 343 342 342 342
353 349 351 347 348 349 348 345 339 335 331 337 338 335 335 334 334 336 335 333 333 335 333 329 328 328 327 327 326 321 321 318 317 317 317 318 321 326 332 337 340 342 342
353 352 350 350 348 349 347 344 337 332 334 335 339 338 338 338 332 332 333 335 332 331 333 330 329 328 327 327 326 326 326 326 325 324 321 318 317 317 317 318 319 321 325
354 352 351 351 349 344 347 340 338 335 334 336 336 336 335 336 337 337 328 329 332 334 331 330 329 328 328 327 327 327 327 327 326 327 328 327 326 324 319 317 317 317 318
353 348 352 351 349 346 344 340 338 337 333 337 335 335 335 334 334 332 330 329 329 330 332 332 329 329 329 328 327 328 327 327 327 328 329 328 327 327 326 324 320 318 317
352 348 350 350 349 346 344 341 340 336 331 332 335 334 335 334 334 333 331 330 326 327 330 332 333 331 329 329 328 328 327 327 327 329 329 327 328 328 328 327 326 325 322
349 347 347 349 347 346 346 342 339 337 335 336 333 337 333 334 335 333 333 332 330 327 325 330 330 330 332 329 329 328 328 328 329 331 330 329 329 330 329 329 329 328 327
348 347 347 348 346 346 347 344 340 339 337 335 337 335 335 333 335 334 333 332 332 330 325 330 330 330 332 331 331 330 331 330 330 330 330 330 330 332 331 330 329 329 328
353 348 347 347 346 347 347 345 342 339 337 334 338 338 335 335 336 336 334 334 333 333 330 332 331 331 332 332 331 331 332 331 331 332 330 329 328 328 330 329 327 328 328
354 353 350 347 347 347 348 347 343 339 338 336 338 339 337 336 336 337 334 334 334 332 333 332 332 332 330 331 331 330 330 331 331 331 330 329 328 327 329 328 328 326 325
357 353 353 350 348 348 348 347 342 339 338 336 337 338 338 337 337 336 333 333 333 334 334 334 333 332 330 330 330 329 330 330 328 326 325 328 329 329 325 324 324 324 324
357 354 354 353 350 348 347 347 342 341 339 338 336 338 339 338 336 335 333 335 336 335 335 333 332 332 331 329 329 328 328 326 327 326 327 327 326 323 322 323 323 323 321
356 356 355 353 350 348 348 347 344 340 341 339 339 338 340 338 337 336 334 336 335 334 334 334 332 329 328 327 328 328 328 328 327 324 323 322 322 319 317 316 318 320 321
358 357 355 353 351 349 347 346 344 342 342 341 340 337 338 340 339 338 335 336 337 335 334 333 332 328 327 327 328 328 328 327 326 325 325 325 320 319 320 321 321 321 322
360 359 357 354 353 352 350 348 346 345 344 343 341 338 335 339 339 339 337 338 338 336 335 333 330 328 327 327 328 326 326 327 326 327 326 322 320 319 321 321 321 321 320
359 360 359 357 355 355 353 350 348 346 345 342 339 337 338 340 339 339 338 337 337 336 334 330 329 327 327 327 329 326 327 328 327 327 323 321 321 321 321 321 320 315 310
360 360 360 358 358 357 357 351 348 346 344 343 340 340 342 342 340 338 337 337 335 333 332 331 329 328 328 328 328 326 325 325 322 323 322 320 321 320 319 317 314 311 313
361 359 359 360 360 359 357 352 347 343 343 342 342 341 341 341 340 338 337 337 333 331 333 330 329 329 329 327 325 321 320 322 321 319 318 319 319 318 317 316 314 313 316

GFSMA_925_thetae_042.txt.gz
Theta_e
347 348 347 347 347 347 347 347 347 346 346 347 348 346 342 345 343 340 342 341 341 341 344 348 347 346 343 346 345 343 341 341 339 335 342 342 338 341 338 333 340 340 335
348 350 348 347 347 347 348 346 346 345 347 346 341 345 345 342 345 342 342 340 339 339 338 340 342 346 347 345 345 343 341 340 336 339 342 342 340 335 331 333 336 334 334
349 349 349 347 347 348 348 348 348 346 341 335 334 343 344 344 345 345 341 341 339 339 338 338 338 339 345 346 346 344 343 341 338 342 340 340 340 339 336 332 339 340 334
350 349 349 349 349 348 348 348 347 347 342 336 335 335 333 339 341 342 343 340 341 341 339 337 338 338 338 339 346 345 342 341 342 340 337 333 339 340 340 335 337 340 340
350 349 349 348 348 348 348 348 347 346 334 335 336 334 334 335 335 335 336 340 339 340 340 340 340 339 338 345 347 345 341 340 340 340 341 341 336 334 332 330 329 333 337
349 349 349 349 348 348 350 349 347 343 335 333 334 333 335 336 336 336 336 339 339 340 340 342 342 341 340 341 344 343 343 341 339 340 341 341 340 341 341 340 339 339 338
349 350 349 349 348 349 349 350 347 344 339 333 335 334 336 335 339 337 339 340 340 338 338 342 344 342 341 342 342 341 340 339 340 341 340 341 341 341 341 340 339 338 338
348 349 349 350 347 349 349 349 346 342 330 335 332 332 337 337 338 340 340 341 339 338 338 340 340 340 342 343 340 339 340 340 340 340 340 340 341 341 340 340 341 341 340
349 349 346 351 349 348 348 348 346 339 330 336 334 335 337 338 335 334 337 339 338 339 335 329 330 339 341 339 333 322 329 338 339 338 337 333 332 334 339 340 340 341 341
350 351 351 350 350 348 347 348 346 337 335 335 336 335 335 335 338 339 333 337 339 338 333 330 329 331 332 328 319 320 320 321 323 322 323 322 318 317 317 317 321 326 332
351 350 351 351 351 348 346 348 345 341 335 333 335 335 335 333 334 334 336 334 339 337 335 331 329 328 327 326 323 325 325 325 327 327 327 326 326 325 323 319 317 318 318
348 349 349 351 349 348 347 347 346 342 334 329 335 336 334 334 332 332 332 331 333 332 331 332 331 329 329 327 326 325 326 326 327 328 328 327 327 326 326 325 324 321 319
349 349 350 351 351 350 348 347 346 343 336 332 333 336 336 333 333 334 330 328 330 328 330 332 331 330 329 329 327 327 327 326 327 327 328 329 327 327 328 327 327 327 327
347 351 352 351 351 351 349 348 346 344 336 335 333 335 334 333 333 333 332 330 330 327 328 330 332 332 331 329 328 328 327 327 327 327 327 328 329 329 329 329 329 329 329
348 352 352 352 352 352 349 348 344 343 338 337 332 334 334 334 333 333 331 330 329 332 331 327 330 329 330 331 330 329 329 328 328 328 327 327 327 329 329 329 330 329 330
346 348 351 350 352 352 349 349 345 343 339 338 332 331 332 333 334 333 332 332 331 329 332 328 329 329 330 330 330 329 329 329 329 329 329 328 329 329 330 329 329 328 327
349 346 349 350 350 352 348 350 347 344 340 339 335 333 331 332 333 333 333 332 331 330 329 329 329 330 330 330 331 332 331 330 330 331 331 330 330 331 329 328 326 327 327
350 347 348 350 349 351 348 349 348 345 341 340 337 335 333 334 333 333 334 334 333 332 331 330 331 331 331 331 330 329 327 327 328 329 331 331 329 326 325 328 327 325 324
350 347 348 350 349 350 348 347 348 346 343 342 340 337 333 334 336 334 334 335 334 333 332 332 331 331 331 331 330 326 325 326 328 328 327 326 326 326 326 325 321 319 318
351 348 349 351 350 349 348 347 347 347 345 343 343 340 336 332 333 336 335 335 335 334 333 332 332 333 333 332 330 327 326 326 327 327 327 326 324 323 322 322 318 319 320
351 350 348 351 349 348 347 347 346 346 345 344 344 344 340 336 334 335 336 335 335 334 332 332 332 332 331 330 329 328 326 326 327 325 322 324 324 325 325 322 319 318 320
352 352 350 350 350 348 348 349 348 346 345 345 344 345 344 340 336 335 336 337 337 336 333 334 333 332 331 330 330 327 326 327 327 324 325 326 326 326 324 321 321 321 320
351 352 351 351 351 351 351 351 351 348 347 346 346 345 342 341 339 335 336 336 338 337 336 335 334 334 332 332 329 327 327 326 326 326 326 326 324 322 321 321 317 315 315
349 350 351 351 351 351 352 352 353 351 347 348 347 345 344 343 341 338 338 337 338 339 337 336 335 335 333 329 329 328 328 327 326 327 324 323 321 321 317 315 314 312 310
352 351 351 351 350 350 349 350 350 348 345 347 347 345 345 343 342 342 339 338 337 338 337 336 335 332 330 329 329 328 327 326 323 322 320 320 320 317 314 310 310 309 309
355 355 353 352 351 350 350 350 350 348 345 345 346 346 345 345 343 340 338 337 338 338 336 334 333 331 330 330 328 327 325 324 321 320 316 317 316 315 313 309 309 308 312

GFSMA_925_thetae_045.txt.gz
Theta_e
348 349 348 347 347 348 349 348 347 348 345 346 347 349 347 347 344 343 343 340 340 341 343 344 340 342 344 345 345 342 340 343 341 337 341 342 338 342 341 333 335 341 337
348 350 349 347 347 347 349 347 345 346 348 347 346 349 347 343 347 343 345 344 339 339 339 341 342 342 343 344 343 344 343 338 339 336 342 341 341 336 334 332 332 333 333
348 348 350 351 350 348 348 348 347 345 343 337 335 346 348 344 348 345 345 345 343 338 338 338 339 340 342 347 347 343 342 341 338 337 341 341 341 340 338 334 336 340 339
348 349 352 352 352 349 348 345 350 349 342 335 335 337 335 346 348 345 347 345 344 343 339 337 338 338 338 340 342 345 341 341 341 340 338 335 336 339 340 338 337 338 340
348 349 349 351 348 351 350 348 350 347 337 337 336 337 336 340 341 337 345 347 344 344 344 342 339 338 338 345 343 346 342 340 340 340 337 340 340 335 335 334 331 331 333
350 350 349 349 349 352 348 350 348 344 340 338 335 339 339 339 341 341 343 344 344 344 345 346 345 344 340 340 341 341 344 343 339 340 340 341 340 340 340 340 339 339 339
348 348 349 349 349 347 347 346 349 346 342 337 337 339 339 340 341 342 344 344 345 345 345 347 347 345 344 341 342 341 340 340 339 340 340 340 341 341 341 340 340 339 338
348 348 349 351 350 352 349 348 348 344 338 336 337 339 338 339 341 341 344 344 343 342 341 340 341 344 345 344 344 338 338 340 340 340 340 340 340 340 340 340 340 341 341
350 348 349 349 351 350 352 349 348 344 339 339 335 339 340 339 340 340 341 344 344 341 338 337 340 343 342 340 334 328 332 338 339 337 332 327 324 325 332 339 340 340 340
349 349 349 349 351 353 352 350 348 345 337 339 339 338 338 341 338 341 339 340 341 341 337 336 338 338 332 332 320 321 321 323 323 324 325 324 322 319 317 317 318 320 322
349 349 350 350 351 351 351 347 347 346 340 338 339 339 339 338 340 340 340 339 340 339 339 336 335 337 334 331 325 326 324 327 327 327 326 326 326 325 324 323 321 318 318
352 350 352 351 351 352 350 348 346 346 342 336 336 339 338 338 338 340 341 340 339 338 336 337 334 334 337 334 328 326 326 326 327 328 328 327 327 327 327 326 326 326 325
351 352 351 349 352 350 349 348 346 346 344 338 330 339 339 338 337 337 337 338 338 337 335 335 335 335 334 336 334 327 327 327 327 327 327 328 328 328 328 328 328 328 328
351 350 348 349 348 350 350 350 347 346 344 340 334 335 338 339 337 337 336 336 337 335 334 335 335 335 334 332 335 329 330 327 327 326 327 327 327 328 329 329 329 329 330
352 349 345 347 350 350 351 351 349 347 345 340 337 334 336 338 337 337 335 335 335 335 334 334 333 331 333 333 332 331 334 332 328 327 328 328 327 327 328 329 329 329 328
350 351 348 350 353 352 352 351 350 348 345 341 340 337 334 337 337 337 336 335 334 334 335 333 333 333 331 333 331 330 331 329 329 329 330 330 329 328 329 329 329 328 328
349 350 347 350 352 350 351 352 350 348 344 343 339 338 336 336 335 336 336 336 335 334 335 335 333 332 330 332 334 333 334 333 333 330 329 330 331 330 330 330 329 326 327
349 349 349 349 353 352 351 351 351 348 346 345 342 339 338 337 335 337 336 337 335 335 335 337 335 335 333 335 335 333 334 329 329 329 327 330 330 329 327 326 326 327 325
350 350 351 350 351 353 351 350 351 350 347 346 344 342 340 338 336 336 336 336 336 337 336 335 334 335 335 334 334 332 329 331 330 328 327 328 327 326 325 325 325 321 318
351 350 350 350 349 350 352 351 351 351 348 347 345 344 343 340 337 337 336 338 338 337 337 336 336 335 335 335 334 334 333 332 332 330 328 329 327 327 323 322 322 319 318
352 350 350 350 350 349 351 351 350 350 349 348 346 345 344 342 338 333 332 337 338 338 337 337 336 334 335 334 334 334 334 332 330 329 328 329 328 327 327 328 326 322 320
353 353 352 351 351 350 350 349 350 350 349 348 348 347 345 342 342 339 333 334 337 339 338 337 335 335 335 335 334 334 333 332 331 330 329 329 328 329 328 327 324 321 320
355 354 353 352 352 351 348 347 348 350 350 349 348 348 347 343 343 341 338 332 334 336 337 340 338 338 337 336 335 332 332 330 331 331 330 329 329 328 325 323 322 316 314
355 356 355 354 353 351 349 348 348 349 350 350 349 349 348 345 343 343 340 339 337 337 337 337 339 339 338 335 333 333 333 332 331 329 329 328 325 324 322 320 318 315 310
354 354 355 356 355 354 351 348 348 347 350 351 350 349 348 346 345 343 343 343 341 340 338 338 338 337 336 334 331 331 330 329 329 328 327 324 321 321 319 318 316 313 308
354 353 354 355 355 355 354 351 349 349 350 352 350 348 347 346 345 344 342 340 342 341 338 336 336 335 333 331 330 330 331 330 329 324 322 319 319 318 317 314 314 311 310

GFSMA_925_thetae_048.txt.gz
Theta_e
353 354 351 352 351 352 350 350 349 350 348 348 348 343 339 345 344 344 345 340 339 342 344 344 342 342 345 344 344 342 339 340 337 338 341 343 339 342 340 335 334 341 339
352 353 351 352 351 352 353 351 350 350 349 349 348 346 341 339 347 343 340 345 340 340 341 343 341 339 343 346 344 344 344 344 339 337 336 340 342 338 337 333 333 333 334
353 349 353 352 351 353 350 350 349 348 346 341 340 344 342 343 346 342 344 341 342 336 337 339 341 342 342 347 345 342 342 343 339 335 336 342 341 341 339 335 333 339 340
353 356 354 353 353 353 350 348 348 347 345 339 341 340 339 340 340 344 342 340 337 342 337 337 337 338 339 343 346 347 345 341 340 341 338 339 337 341 340 340 338 337 338
355 356 354 353 356 352 352 352 349 348 345 342 339 338 337 337 338 336 341 343 344 340 341 342 337 338 338 345 344 346 342 341 341 340 340 340 339 336 334 334 334 330 329
357 357 355 354 355 352 351 352 349 349 346 344 336 335 338 338 337 338 342 343 344 342 341 345 345 343 340 343 344 342 342 342 341 339 340 340 340 340 340 339 339 339 338
357 359 355 356 354 352 350 351 350 349 347 344 334 335 338 339 338 339 339 338 339 340 341 342 343 344 345 342 342 342 341 341 340 340 340 340 340 341 341 340 340 340 339
358 357 353 352 355 353 351 351 349 349 346 340 335 336 340 337 338 339 340 339 339 337 337 337 340 342 343 345 346 337 337 340 342 341 341 340 340 341 341 341 340 341 341
356 357 354 349 355 351 350 352 352 350 345 343 340 339 338 339 337 338 342 340 340 337 336 337 340 343 344 341 336 329 335 340 340 340 337 331 326 324 327 334 339 340 340
355 355 355 354 352 353 352 353 352 351 349 341 338 337 342 345 338 341 338 341 340 340 338 336 338 339 336 328 328 326 320 321 322 324 324 324 323 322 320 318 318 319 320
356 354 355 354 356 356 354 356 353 353 348 343 335 338 339 339 340 339 342 340 340 339 340 337 337 336 336 332 332 326 326 327 327 327 326 326 326 326 324 324 324 322 319
353 356 355 356 357 357 356 357 355 353 350 347 336 337 337 337 338 339 339 340 340 340 339 339 338 336 337 335 331 328 325 327 328 328 328 327 327 327 327 328 327 328 328
351 352 356 356 357 358 356 357 357 352 352 349 345 335 336 337 336 335 336 337 337 338 338 338 338 338 336 337 335 329 327 327 327 327 326 327 328 328 328 328 328 329 329
350 351 354 355 357 356 358 358 356 354 351 350 348 342 336 336 337 336 335 335 337 336 336 336 336 335 336 336 337 335 331 329 326 326 326 326 326 327 327 328 329 329 329
352 353 354 356 356 357 358 358 356 355 351 351 348 346 339 335 337 336 336 335 335 337 337 338 333 336 336 336 336 336 336 335 333 328 327 328 328 328 328 327 328 328 329
355 352 355 355 356 357 358 359 356 356 354 350 347 346 344 334 337 337 336 334 334 334 336 334 334 335 335 334 336 335 337 336 334 329 329 329 330 330 330 328 329 330 329
357 357 355 355 355 357 360 360 358 355 355 352 348 346 346 337 336 336 336 335 335 335 334 334 334 336 338 338 336 336 336 335 335 333 329 327 327 328 331 330 330 330 328
358 358 358 356 355 356 359 360 358 355 355 353 350 347 346 342 341 337 337 336 335 336 335 336 336 335 338 338 338 339 336 333 332 330 330 327 327 329 329 328 326 325 325
358 358 358 359 357 354 356 359 358 357 355 354 351 350 346 344 342 337 338 337 337 337 338 335 335 337 335 337 339 338 337 335 332 331 331 329 329 328 327 326 325 324 324
359 359 359 359 358 357 355 355 357 357 357 355 353 350 348 346 343 342 340 340 338 337 338 337 335 334 337 335 337 336 337 336 335 334 333 331 330 329 327 326 323 322 323
359 359 359 359 359 357 355 355 356 356 357 356 354 351 349 347 345 343 341 340 339 340 336 337 337 335 336 335 337 335 335 335 335 336 334 332 331 331 331 329 328 328 327
360 360 360 360 359 357 354 352 354 356 356 357 356 353 350 348 346 344 341 339 338 339 339 336 337 336 337 336 336 335 335 335 336 332 334 333 332 331 330 329 327 326 323
360 361 360 360 360 359 355 354 351 354 355 356 356 355 353 351 348 347 341 338 334 332 335 341 339 340 338 339 339 338 339 336 335 333 333 333 331 331 329 327 325 323 316
360 361 361 360 360 359 358 355 352 351 353 355 356 356 355 353 351 348 345 340 339 334 335 337 340 341 342 342 342 340 337 336 335 334 332 333 330 327 325 323 322 320 316
361 360 360 360 361 360 358 356 354 351 353 355 357 357 356 355 354 349 348 345 339 339 341 338 338 339 341 341 339 337 335 335 334 332 330 330 326 322 322 321 319 317 314
359 359 359 360 361 361 360 358 355 352 352 353 354 356 355 355 354 351 346 346 345 345 343 340 338 338 339 337 335 335 335 333 333 331 328 325 321 320 319 318 316 315 313